Regional Weather Roundup
Issued by NWS

Home | Current Version | Previous Version | Graphics & Text | Print | Product List | Glossary On
Versions: 1 2 3 4 5 6 7 8 9 10 11 12 13 14 15 16 17 18 19 20 21 22 23 24 25 26 27 28 29 30 31 32 33 34 35 36 37 38 39 40 41 42 43 44 45 46 47 48 49 50
000
ASUS43 KDMX 060607
RWRIA

WEATHER ROUNDUP FOR IOWA
NATIONAL WEATHER SERVICE DES MOINES IA
100 AM CDT MON JUL 06 2015

NOTE: "FAIR" INDICATES FEW OR NO CLOUDS BELOW 12,000 FEET WITH NO
SIGNIFICANT WEATHER AND/OR OBSTRUCTIONS TO VISIBILITY.

* - THESE STATIONS ARE NOT NWS STATIONS...THUS NOT UNDER NWS
QUALITY CONTROL.  THEY ALSO DO NOT REPORT WEATHER SUCH
AS PRECIPITATION OR FOG.

IAZ001>003-012>014-020>022-031>034-043>046-060700-
   NORTHWEST IOWA

CITY           SKY/WX    TMP DP  RH WIND       PRES   REMARKS
CARROLL *      PTCLDY    75  73  94 S10       29.82F
CHEROKEE *     CLOUDY    79  73  81 S16G24    29.77R HX  82
DENISON *      CLOUDY    77  73  88 S8        29.83R FOG
LE MARS *        N/A     79  73  83 S15G22    29.75R HX  82
ORANGE CITY *  PTCLDY    77  72  83 S16G22    29.75S
SHELDON *      MOCLDY    77  77 100 S18G26    29.74F
SIOUX CITY     CLOUDY    80  71  74 SE13      29.74S HX  84
6HR MIN TEMP:  80; 6HR MAX TEMP:  88;

SPENCER        CLOUDY    78  69  73 S15       29.78S HX  80
6HR MIN TEMP:  77; 6HR MAX TEMP:  87;

STORM LAKE *   CLOUDY    75  72  88 S25G36    29.78F
$$

IAZ055>058-069>071-079>083-090>094-060700-
   SOUTHWEST IOWA

CITY           SKY/WX    TMP DP  RH WIND       PRES   REMARKS
ATLANTIC *     PTCLDY    81  75  83 S13       29.84S HX  86
AUDUBON *      CLEAR     79  73  83 S9        29.85S HX  82
CLARINDA *     PTCLDY    81  81 100 S14       29.86F HX  91
COUNCIL BLFS * MOCLDY    79  75  89 CALM      29.86R HX  82
CRESTON *      CLEAR     77  73  88 S15       29.87F
HARLAN  *      DRIZZLE   77  77 100 SW10      29.90R
LAMONI         MOCLDY    77  73  87 S9        29.89S
6HR MIN TEMP:  77; 6HR MAX TEMP:  85;

RED OAK *      MOCLDY    81  75  83 S13       29.84F HX  86
SHENANDOAH *   CLEAR     82  75  78 S15       29.84S HX  89
$$

IAZ047>049-059>061-072>074-084-060700-
   CENTRAL IOWA

CITY           SKY/WX    TMP DP  RH WIND       PRES   REMARKS
AMES           MOCLDY    72  67  84 S12       29.84F
6HR MIN TEMP:  72; 6HR MAX TEMP:  82;

ANKENY *       CLEAR     75  70  83 S12G17    29.84F
CHARITON *     CLEAR     75  72  88 S13       29.89F
DES MOINES     CLOUDY    77  70  79 S15G23    29.85F
6HR MIN TEMP:  77; 6HR MAX TEMP:  85;

GRINNELL*      CLEAR     72  67  86 SE10      29.90F
KNOXVILLE *    CLEAR     75  68  78 S10       29.87F
MARSHALLTOWN   PTCLDY    72  68  87 S13       29.86F
6HR MIN TEMP:  72; 6HR MAX TEMP:  82;

PELLA *        CLEAR     74  71  91 SE7       29.89F
PERRY *        MOCLDY    75  70  83 S10       29.84F
$$

IAZ004>006-015-016-023>025-035-036-060700-
   NORTH CENTRAL IOWA

CITY           SKY/WX    TMP DP  RH WIND       PRES   REMARKS
ALGONA *       CLEAR     75  70  83 S15       29.81S
CLARION *      CLEAR     75  66  73 S16G26    29.83S
ESTHERVILLE    CLOUDY    74  69  85 S14       29.78F
6HR MIN TEMP:  74; 6HR MAX TEMP:  83;

FORT DODGE *   CLOUDY    77  70  78 S15G24    29.83F
MASON CITY     CLOUDY    73  68  84 S13       29.85F
6HR MIN TEMP:  72; 6HR MAX TEMP:  82;

FOREST CITY *  CLEAR     72  64  78 S10G17    29.83S
IOWA FALLS *     N/A     73  66  78 S14G20    29.86F
$$

IAZ007>011-017>019-026>030-037>042-050>054-066-060700-
   NORTHEAST IOWA

CITY           SKY/WX    TMP DP  RH WIND       PRES   REMARKS
CEDAR RAPIDS   CLEAR     72  69  90 S10G18    29.91F FOG
6HR MIN TEMP:  72; 6HR MAX TEMP:  81;

CHARLES CITY * CLEAR     72  72 100 S13       29.87F
CLINTON *      CLEAR     68  63  83 S8        29.98F
DECORAH *        N/A    N/A N/A N/A MISG        N/A
DUBUQUE        CLEAR     68  64  87 S12       29.95S FOG
6HR MIN TEMP:  68; 6HR MAX TEMP:  78;

MONTICELLO *   CLEAR     70  70 100 SE7       29.93F FOG
OELWEIN *      CLEAR     70  70 100 S9        29.90F FOG
WATERLOO       PTCLDY    73  69  87 S14       29.86F
6HR MIN TEMP:  73; 6HR MAX TEMP:  82;

$$

IAZ064-065-067-068-078-060700-
   EAST CENTRAL IOWA

CITY           SKY/WX    TMP DP  RH WIND       PRES   REMARKS
DAVENPORT      CLEAR     71  65  81 S8        29.97R
6HR MIN TEMP:  71; 6HR MAX TEMP:  79;

IOWA CITY      CLEAR     70  68  93 SE7       29.94F FOG
6HR MIN TEMP:  70; 6HR MAX TEMP:  82;

MT. PLEASANT * CLEAR     73  66  81 S8        29.95F HAZE
MUSCATINE *    PTCLDY    72  68  88 S5        29.95F FOG
QUAD CITIES    CLEAR     70  65  84 SE7       29.96R HAZE
6HR MIN TEMP:  70; 6HR MAX TEMP:  80;

$$

IAZ062-063-075>077-085>089-095>099-060700-
   SOUTHEAST IOWA

CITY           SKY/WX    TMP DP  RH WIND       PRES   REMARKS
BURLINGTON     CLEAR     73  69  87 S9        29.96R FOG
6HR MIN TEMP:  73; 6HR MAX TEMP:  81;

FAIRFIELD *    CLEAR     73  68  83 S9        29.94S
FORT MADISON * CLEAR     72  68  88 S9        29.97S
KEOKUK *       CLEAR     73  68  83 SE7       29.96R
OSKALOOSA *      N/A     71  68  90 SE7       29.91F
CENTERVILLE *  CLEAR     73  68  83 SE9       29.93F
OTTUMWA        CLEAR     73  69  87 S10       29.90F
6HR MIN TEMP:  73; 6HR MAX TEMP:  82;

WASHINGTON *   CLEAR     70  68  94 S6        29.95F FOG
$$

ABBREVIATIONS USED IN REMARKS
   TC - TEMPERATURES IN CELSIUS
  WCI - WIND CHILL INDEX
   HX - HEAT INDEX
  VSB - VISIBILITY
$$



USA.gov is the U.S. government's official web portal to all federal, state and local government web resources and services.